| time (UTC) | temp F | wind direction | speed MPH | gust MPH | rain 1hr in | rain 24hr in | rain mn in | humidity % | barometer mb |
| 20260508074554 | 56 | 223 | 0.0 | 0.0 | 0.00 | 0.00 | 0.00 | 88 | 1014.1 |
| 20260508073057 | 57 | 224 | 0.0 | 0.0 | 0.00 | 0.00 | 0.00 | 86 | 1014.1 |
| 20260508070018 | 58 | 224 | 0.0 | 0.0 | 0.00 | 0.00 | 0.00 | 83 | 1013.9 |
| 20260508064538 | 59 | 223 | 0.0 | 0.0 | 0.00 | 0.00 | 0.00 | 82 | 1014.0 |
| 20260508063017 | 59 | 224 | 0.0 | 0.0 | 0.00 | 0.00 | 0.00 | 82 | 1013.9 |
| 20260508060020 | 59 | 224 | 0.0 | 0.0 | 0.00 | 0.00 | 0.00 | 83 | 1013.6 |
| 20260508054517 | 59 | 224 | 0.0 | 0.0 | 0.00 | 0.00 | 0.00 | 83 | 1013.5 |
| 20260508053017 | 58 | 224 | 0.0 | 0.0 | 0.00 | 0.00 | 0.00 | 83 | 1013.6 |
| 20260508050025 | 58 | 223 | 0.0 | 0.0 | 0.00 | 0.00 | 0.00 | 84 | 1013.4 |
| 20260508044525 | 58 | 223 | 0.0 | 0.0 | 0.00 | 0.00 | 0.00 | 84 | 1013.5 |
| 20260508043027 | 59 | 224 | 0.0 | 0.0 | 0.00 | 0.00 | 0.00 | 83 | 1013.4 |
| 20260508040029 | 60 | 223 | 0.0 | 0.0 | 0.00 | 0.00 | 0.00 | 81 | 1013.2 |
| 20260508034528 | 60 | 224 | 0.0 | 0.0 | 0.00 | 0.00 | 0.00 | 80 | 1013.1 |
| 20260508033027 | 61 | 224 | 0.0 | 0.0 | 0.00 | 0.00 | 0.00 | 78 | 1013.0 |
| 20260508030119 | 62 | 224 | 0.0 | 0.0 | 0.00 | 0.00 | 0.00 | 75 | 1012.7 |
| 20260508024604 | 63 | 224 | 0.0 | 0.0 | 0.00 | 0.00 | 0.00 | 72 | 1012.6 |
| 20260508023055 | 64 | 224 | 0.0 | 0.0 | 0.00 | 0.00 | 0.00 | 71 | 1012.4 |
| 20260508020025 | 66 | 224 | 0.0 | 0.0 | 0.00 | 0.00 | 0.00 | 67 | 1012.5 |
| 20260508014532 | 66 | 224 | 0.0 | 0.0 | 0.00 | 0.00 | 0.00 | 67 | 1012.4 |
| 20260508013026 | 68 | 224 | 0.0 | 0.0 | 0.00 | 0.00 | 0.00 | 64 | 1012.4 |
| 20260508010010 | 70 | 209 | 0.0 | 0.0 | 0.00 | 0.00 | 0.00 | 61 | 1012.3 |
| 20260508004510 | 70 | 215 | 0.0 | 0.0 | 0.00 | 0.00 | 0.00 | 61 | 1012.4 |
| 20260508003032 | 70 | 211 | 0.0 | 0.0 | 0.00 | 0.00 | 0.00 | 61 | 1012.3 |
| 20260508001522 | 72 | 238 | 0.0 | 0.0 | 0.00 | 0.00 | 0.00 | 59 | 1012.4 |
| 20260507234520 | 73 | 241 | 0.0 | 0.0 | 0.00 | 0.00 | 0.00 | 57 | 1012.4 |
| 20260507233017 | 74 | 243 | 0.0 | 0.0 | 0.00 | 0.00 | 0.00 | 57 | 1012.5 |
| 20260507231516 | 73 | 202 | 0.0 | 0.0 | 0.00 | 0.00 | 0.00 | 56 | 1012.5 |
| 20260507224519 | 74 | 212 | 0.0 | 0.0 | 0.00 | 0.00 | 0.00 | 55 | 1012.7 |
| 20260507223021 | 74 | 217 | 0.0 | 0.0 | 0.00 | 0.00 | 0.00 | 54 | 1012.8 |
| 20260507221516 | 74 | 244 | 0.0 | 0.0 | 0.00 | 0.00 | 0.00 | 55 | 1013.0 |
| 20260507214607 | 73 | 216 | 1.0 | 0.0 | 0.00 | 0.00 | 0.00 | 56 | 1013.4 |
| 20260507213106 | 74 | 229 | 1.0 | 0.0 | 0.00 | 0.00 | 0.00 | 55 | 1013.5 |
| 20260507211551 | 73 | 219 | 1.0 | 0.0 | 0.00 | 0.00 | 0.00 | 57 | 1013.5 |
| 20260507210054 | 73 | 184 | 2.0 | 0.0 | 0.00 | 0.00 | 0.00 | 57 | 1013.7 |
| 20260507204602 | 74 | 231 | 2.0 | 0.0 | 0.00 | 0.00 | 0.00 | 58 | 1013.7 |
| 20260507203054 | 74 | 241 | 1.0 | 0.0 | 0.00 | 0.00 | 0.00 | 58 | 1014.0 |
| 20260507201553 | 74 | 195 | 3.0 | 0.0 | 0.00 | 0.00 | 0.00 | 59 | 1014.0 |
| 20260507200051 | 73 | 198 | 3.0 | 0.0 | 0.00 | 0.00 | 0.00 | 59 | 1014.1 |
| 20260507194559 | 74 | 211 | 3.0 | 0.0 | 0.00 | 0.00 | 0.00 | 58 | 1014.2 |
| 20260507193110 | 75 | 249 | 1.0 | 0.0 | 0.00 | 0.00 | 0.00 | 56 | 1014.2 |
| 20260507191600 | 75 | 237 | 2.0 | 0.0 | 0.00 | 0.00 | 0.00 | 57 | 1014.2 |
| 20260507184523 | 75 | 221 | 1.0 | 0.0 | 0.00 | 0.00 | 0.00 | 57 | 1014.5 |
| 20260507183020 | 73 | 221 | 1.0 | 0.0 | 0.00 | 0.00 | 0.00 | 59 | 1014.4 |
| 20260507181512 | 73 | 218 | 1.0 | 0.0 | 0.00 | 0.00 | 0.00 | 59 | 1014.5 |
| 20260507174508 | 71 | 221 | 0.0 | 0.0 | 0.00 | 0.00 | 0.00 | 62 | 1014.7 |
| 20260507173002 | 71 | 221 | 0.0 | 0.0 | 0.00 | 0.00 | 0.00 | 62 | 1014.7 |
| 20260507171604 | 69 | 221 | 0.0 | 0.0 | 0.00 | 0.00 | 0.00 | 63 | 1014.7 |
| 20260507164559 | 68 | 221 | 0.0 | 0.0 | 0.00 | 0.00 | 0.00 | 67 | 1014.9 |
| 20260507163055 | 66 | 221 | 0.0 | 0.0 | 0.00 | 0.00 | 0.00 | 67 | 1015.0 |
| 20260507161556 | 65 | 221 | 0.0 | 0.0 | 0.00 | 0.00 | 0.00 | 68 | 1014.9 |
| 20260507154541 | 64 | 221 | 0.0 | 0.0 | 0.00 | 0.00 | 0.00 | 69 | 1015.0 |
| 20260507153045 | 64 | 221 | 0.0 | 0.0 | 0.00 | 0.00 | 0.00 | 71 | 1015.1 |
| 20260507151534 | 63 | 221 | 0.0 | 0.0 | 0.00 | 0.00 | 0.00 | 72 | 1015.1 |
| 20260507150033 | 63 | 221 | 0.0 | 0.0 | 0.00 | 0.00 | 0.00 | 72 | 1015.1 |
| 20260507144549 | 60 | 221 | 0.0 | 0.0 | 0.00 | 0.00 | 0.00 | 76 | 1015.1 |
| 20260507143043 | 59 | 221 | 0.0 | 0.0 | 0.00 | 0.00 | 0.00 | 77 | 1015.1 |
| 20260507141538 | 58 | 221 | 0.0 | 0.0 | 0.00 | 0.00 | 0.00 | 80 | 1014.9 |
| 20260507134530 | 55 | 221 | 0.0 | 0.0 | 0.00 | 0.00 | 0.00 | 86 | 1014.6 |
| 20260507133030 | 54 | 221 | 0.0 | 0.0 | 0.00 | 0.00 | 0.00 | 86 | 1014.5 |
| 20260507131528 | 54 | 221 | 0.0 | 0.0 | 0.00 | 0.00 | 0.00 | 86 | 1014.4 |
| 20260507124552 | 54 | 221 | 0.0 | 0.0 | 0.00 | 0.00 | 0.00 | 86 | 1014.2 |
| 20260507123053 | 54 | 221 | 0.0 | 0.0 | 0.00 | 0.00 | 0.00 | 87 | 1014.2 |
| 20260507121546 | 54 | 221 | 0.0 | 0.0 | 0.00 | 0.00 | 0.00 | 87 | 1014.2 |
| 20260507114523 | 54 | 221 | 0.0 | 0.0 | 0.00 | 0.00 | 0.00 | 86 | 1014.3 |
| 20260507113033 | 54 | 221 | 0.0 | 0.0 | 0.00 | 0.00 | 0.00 | 85 | 1014.3 |
| 20260507110041 | 55 | 221 | 0.0 | 0.0 | 0.00 | 0.00 | 0.00 | 83 | 1014.4 |
| 20260507104541 | 55 | 221 | 0.0 | 0.0 | 0.00 | 0.00 | 0.00 | 84 | 1014.4 |
| 20260507103038 | 55 | 221 | 0.0 | 0.0 | 0.00 | 0.00 | 0.00 | 83 | 1014.6 |
| 20260507100056 | 55 | 221 | 0.0 | 0.0 | 0.00 | 0.00 | 0.00 | 84 | 1014.7 |
| 20260507094554 | 55 | 221 | 0.0 | 0.0 | 0.00 | 0.00 | 0.00 | 83 | 1014.8 |
| 20260507093052 | 55 | 221 | 0.0 | 0.0 | 0.00 | 0.00 | 0.00 | 84 | 1014.9 |
| 20260507090031 | 55 | 221 | 0.0 | 0.0 | 0.00 | 0.00 | 0.00 | 85 | 1015.1 |
| 20260507084525 | 55 | 221 | 0.0 | 0.0 | 0.00 | 0.00 | 0.00 | 85 | 1015.2 |
| 20260507083035 | 55 | 221 | 0.0 | 0.0 | 0.00 | 0.00 | 0.00 | 85 | 1015.3 |
| 20260507080025 | 55 | 221 | 0.0 | 0.0 | 0.00 | 0.00 | 0.00 | 87 | 1015.4 |